User: anonymous   Login
Location: Unspecified
(0.0000°N, 0.0000°E)
Time: 08:55:32
(UTC+00:00)
Language:

STARLINK-34889 - Orbit

View from above orbital plane
View from above orbital plane
View from above satellite
View from above satellite

Ground track
Ground track

The orbit is defined by the following mean orbital elements,

1 65761U          26144.92966058 +.00000000 +00000-0 +94086-3 0 00000
2 65761  53.1623 338.9479 0001005  77.0006 283.1107 15.30209074    09
Epoch (UTC): 24 May 2026 22:18:42
Eccentricity: 0.0001005
inclination: 53.1623°
perigee height: 474 km
apogee height: 476 km
right ascension of ascending node: 338.9479°
argument of perigee: 77.0006°
revolutions per day: 15.30209074
mean anomaly at epoch: 283.1107°

The dashed part of the orbit path shows where the satellite is in the earth's shadow,  

DLR